Location: Grantsboro
(35.1404°N, 76.8424°W)
Time: 04:51:39
(UTC+00:00)

Atlas Centaur 2 - Pass Details

Date: 18 January 2020
Orbit: 459 x 1310 km, 30.4° (Epoch: 25 February)

Event Time Altitude Azimuth Distance (km) Brightness Sun altitude
Rises 00:33:00 0° 223° (SW) 3,207 5.9 -26.8°
Reaches altitude 10° 00:35:33 10° 212° (SSW) 2,419 5.0 -27.3°
Enters shadow 00:39:51 28° 165° (SSE) 1,666 3.6 -28.2°
